Station CHYV2 - 8638999 - Cape Henry, VA Image indicating link to RSS feed of recent meteorological observations for station CHYV2


Conditions at CHYV2 as of
(6:00 am EDT)
1000 GMT on 07/21/2024:
     

Click on the graph icon in the table below to see a time series plot of the last five days of that observation.

5-day plot - Wind Direction Wind Direction (WDIR):WSW ( 250 deg true )
5-day plot - Wind Speed Wind Speed (WSPD): 4.1 kts
5-day plot - Wind Gust Wind Gust (GST): 5.1 kts
5-day plot - Atmospheric Pressure Atmospheric Pressure (PRES):30.03 in
5-day plot - Pressure Tendency Pressure Tendency (PTDY):+0.02 in ( Rising )
5-day plot - Air Temperature Air Temperature (ATMP): 73.4 °F
5-day plot - Wind Speed at 10 Meters Wind Speed at 10 meters (WSPD10M): 3.9 kts
5-day plot - Wind Speed at 20 Meters Wind Speed at 20 meters (WSPD20M): 3.9 kts
5-day plot -  Wind Speed, Wind Gust and Atmospheric Pressure Combined plot of Wind Speed, Gust, and Air Pressure
NOS Water Level Observation Network Water Level
Previous observations
TIME
(EDT)
5-day plot - Wind Direction
WDIR
 
5-day plot - Wind Speed
WSPD
kts
5-day plot - Wind Gust
GST
kts
5-day plot - Wave Height
WVHT
ft
5-day plot - Dominant Wave Period
DPD
sec
5-day plot - Average Wave Period
APD
sec
5-day plot - Mean Wave Direction
MWD
 
5-day plot - Atmospheric Pressure
PRES
in
5-day plot - Pressure Tendency
PTDY
in
5-day plot - Air Temperature
ATMP
°F
5-day plot - Water Temperature
WTMP
°F
5-day plot - Dew Point
DEWP
°F
5-day plot - Salinity
SAL
psu
5-day plot - Visibility
VIS
nmi
5-day plot - Tide (above MLLW)
TIDE
ft
2024-07-21 05:54 am W 4.1 7.0----30.03- 73.6-----
2024-07-21 05:48 am W 5.1 8.0----30.03- 73.6-----
2024-07-21 05:42 am W 5.1 8.0----30.03- 73.6-----
2024-07-21 05:36 am W 6.0 8.9----30.03- 73.8-----
2024-07-21 05:30 am-------30.02- 73.6-----
2024-07-21 05:24 am-------30.02- 73.6-----
2024-07-21 05:18 am W 8.0 11.1----30.02- 73.6-----
2024-07-21 05:12 am W 8.0 11.1----30.01- 73.6-----
2024-07-21 05:06 am W 8.0 11.1----30.01- 73.6-----
2024-07-21 05:00 am W 8.0 12.0------ 73.4-----
2024-07-21 04:54 am W 8.9 11.1------ 73.4-----
2024-07-21 04:48 am W 8.0 12.0----30.01- 73.6-----
2024-07-21 04:42 amWNW 8.9 11.1----30.01- 73.6-----
2024-07-21 04:36 am W 7.0 9.9----30.01- 73.6-----
2024-07-21 04:30 am W 7.0 8.9----30.01- 73.6-----
2024-07-21 04:24 am W 8.0 11.1----30.01- 73.8-----
2024-07-21 04:18 am W 8.0 12.0----30.01- 73.9-----
2024-07-21 04:12 am W 8.9 12.0----30.01- 73.9-----
2024-07-21 04:06 am W 8.9 12.0----30.01- 73.9-----
2024-07-21 04:00 am W 11.1 14.0----30.01+0.00 74.1-----
2024-07-21 03:54 amWNW 12.0 15.9----30.00- 74.1-----
2024-07-21 03:48 amWNW 12.0 14.0----30.00- 74.3-----
2024-07-21 03:42 am W 11.1 13.0----30.01- 74.3-----
2024-07-21 03:36 am W 9.9 13.0----30.01- 74.3-----
2024-07-21 03:30 am W 9.9 13.0----30.01- 74.1-----
2024-07-21 03:24 amWNW 8.9 12.0----30.01- 74.1-----
2024-07-21 03:18 amWNW 9.9 14.0----30.01- 74.1-----
2024-07-21 03:12 amWNW 9.9 13.0----30.01- 74.1-----
2024-07-21 03:06 amWNW 11.1 14.0----30.01- 74.3-----
2024-07-21 03:00 amWNW 9.9 13.0----30.01+0.01 74.3-----
2024-07-21 02:54 amWNW 9.9 14.0----30.01- 74.3-----
2024-07-21 02:48 amWNW 9.9 14.0----30.01- 74.5-----
2024-07-21 02:42 am W 11.1 14.0----30.01- 74.7-----
2024-07-21 02:36 am W 9.9 15.0----30.01- 74.7-----
2024-07-21 02:30 am W 9.9 15.0----30.01- 74.5-----
2024-07-21 02:24 am W 9.9 15.0----30.01- 74.5-----
2024-07-21 02:18 am W 8.9 13.0----30.01-------
2024-07-21 02:12 am W 7.0 12.0----30.01-------
2024-07-21 02:06 am W 8.9 12.0----30.01-------
2024-07-21 02:00 am W 8.0 11.1----30.01+0.00------
2024-07-21 01:54 am W 9.9 13.0----30.01-------
2024-07-21 01:48 am W 8.9 13.0----30.01- 74.3-----
2024-07-21 01:42 am W 8.9 12.0----30.01- 74.3-----
2024-07-21 01:36 am W 7.0 11.1----30.01- 74.3-----
2024-07-21 01:30 am W 8.9 11.1----30.01-------
2024-07-21 01:24 am W 7.0 8.9----30.01-------
2024-07-21 01:18 am W 7.0 8.9----30.01- 74.1-----
2024-07-21 01:12 am W 5.1 8.0----30.01- 74.1-----
2024-07-21 01:06 am W 6.0 8.9----30.01- 74.1-----
2024-07-21 01:00 am W 5.1 7.0----30.01-0.02 74.1-----
2024-07-21 12:54 am W 4.1 9.9----30.01- 74.3-----
2024-07-21 12:48 am W 7.0 9.9----30.01- 74.3-----
2024-07-21 12:42 am W 6.0 8.0----30.01- 74.3-----
2024-07-21 12:36 am W 6.0 8.9----30.01- 74.1-----
2024-07-21 12:30 am-------30.01- 74.1-----
2024-07-21 12:24 am-------30.01- 74.3-----
2024-07-21 12:18 am-------30.01- 74.5-----
2024-07-21 12:12 am-------30.01- 74.5-----
2024-07-21 12:06 am-------30.00- 74.5-----
2024-07-21 12:00 am W 7.0 11.1----30.00-0.01 74.5-----
2024-07-20 11:54 pm W 7.0 11.1----30.00- 74.5-----
2024-07-20 11:48 pm W 6.0 8.0----30.00- 74.5-----
2024-07-20 11:42 pmWSW 5.1 8.0----30.01- 74.5-----
2024-07-20 11:36 pmWSW 6.0 8.0----30.01- 74.7-----
2024-07-20 11:30 pm--------- 74.7-----
2024-07-20 11:24 pm--------- 74.5-----
2024-07-20 11:18 pmWSW 5.1 8.0----30.01-------
2024-07-20 11:12 pmWSW 6.0 8.0----30.01-------
2024-07-20 11:06 pmWSW 6.0 8.0----30.01-------
2024-07-20 11:00 pm SW 6.0 8.0----30.01+0.00 74.7-----
2024-07-20 10:54 pm SW 6.0 8.0----30.01- 74.7-----
2024-07-20 10:48 pmWSW 6.0 8.9----30.01- 74.7-----
2024-07-20 10:42 pmWSW 6.0 8.9----30.02- 74.7-----
2024-07-20 10:36 pmWSW 7.0 9.9----30.02- 74.7-----
2024-07-20 10:30 pmWSW 6.0 8.9----30.03- 74.7-----
2024-07-20 10:24 pmWSW 6.0 8.9----30.03- 74.8-----
2024-07-20 10:18 pm SW 6.0 8.0----30.03- 74.8-----
2024-07-20 10:12 pmWSW 6.0 8.9----30.03- 74.8-----
2024-07-20 10:06 pmWSW 5.1 8.9----30.03- 74.8-----
2024-07-20 10:00 pm SW 5.1 8.0----30.03+0.03 74.8-----
2024-07-20 09:54 pmWSW 5.1 8.0----30.03- 74.8-----
2024-07-20 09:48 pm SW 5.1 8.0----30.03- 75.0-----
2024-07-20 09:42 pm SW 6.0 8.0----30.03- 75.0-----
2024-07-20 09:36 pm SW 7.0 8.9----30.03- 74.8-----
2024-07-20 09:30 pm SW 6.0 8.0----30.03-------
2024-07-20 09:24 pm SW 5.1 7.0----30.03-------
2024-07-20 09:18 pmWSW 5.1 7.0----30.02- 75.0-----
2024-07-20 09:12 pmWSW 5.1 6.0----30.02- 75.0-----
2024-07-20 09:06 pm SW 5.1 8.0----30.02- 75.0-----
2024-07-20 09:00 pm SW 5.1 8.0----30.01+0.04 75.0-----
2024-07-20 08:54 pmWSW 5.1 7.0----30.01- 75.0-----
2024-07-20 08:48 pmWSW 4.1 5.1----30.01- 75.0-----
2024-07-20 08:42 pmWSW 4.1 6.0----30.01- 75.2-----
2024-07-20 08:36 pmWSW 4.1 5.1----30.01- 75.2-----
2024-07-20 08:30 pmWSW 4.1 5.1----30.00- 75.0-----
2024-07-20 08:24 pm SW 2.9 4.1----30.00- 75.2-----
2024-07-20 08:18 pmWSW 2.9 4.1----30.00- 75.2-----
2024-07-20 08:12 pmWSW 1.9 2.9----30.00- 75.4-----
2024-07-20 08:06 pmWSW 1.9 2.9----30.00- 75.4-----
2024-07-20 08:00 pmWSW 2.9 4.1----30.01+0.01 75.4-----
2024-07-20 07:54 pmWSW 1.9 2.9----30.01- 75.4-----
2024-07-20 07:48 pm W 1.0 2.9----30.00- 75.2-----
2024-07-20 07:42 pmWNW 1.9 4.1----30.00- 75.0-----
2024-07-20 07:36 pmNNW 2.9 5.1----30.00- 74.8-----
2024-07-20 07:30 pmNNW 5.1 6.0----30.00- 74.7-----
2024-07-20 07:24 pm NW 5.1 6.0----30.00- 74.5-----
2024-07-20 07:18 pmNNW 6.0 7.0----30.00- 74.1-----
2024-07-20 07:00 pmNNW 9.9 12.0----30.01- 74.1-----
2024-07-20 06:54 pmNNW 9.9 12.0----30.01- 74.8-----
2024-07-20 06:48 pmNNW 11.1 12.0----30.01- 74.8-----
2024-07-20 06:42 pmNNW 12.0 14.0----30.00- 74.7-----
2024-07-20 06:36 pm NW 13.0 19.0----30.00- 74.8-----
2024-07-20 06:30 pm NW 18.1 22.9----30.01-------
2024-07-20 06:24 pm NW 17.1 21.0----30.01-------
2024-07-20 06:18 pm NW 21.0 25.1----30.01- 74.7-----
2024-07-20 06:12 pm NW 12.0 15.9----30.00- 76.5-----
2024-07-20 06:06 pm N 12.0 14.0----29.98- 76.5-----
2024-07-20 06:00 pm N 13.0 15.9----29.98-0.05 76.8-----
2024-07-20 05:54 pmNNW 15.9 19.0----29.98- 77.0-----
2024-07-20 05:48 pmNNW 15.9 24.1----29.98- 77.7-----
2024-07-20 05:42 pm SW 6.0 13.0----29.98- 84.7-----
2024-07-20 05:36 pm SW 8.9 13.0----29.98- 85.1-----
2024-07-20 05:30 pm SW 7.0 12.0----29.98-------
2024-07-20 05:24 pmSSW 7.0 11.1----29.98-------
2024-07-20 05:18 pmSSW 8.9 12.0----29.99- 84.4-----
2024-07-20 05:12 pmSSW 8.9 13.0----29.99- 85.1-----
2024-07-20 05:06 pmSSW 9.9 14.0----29.99- 85.3-----
2024-07-20 05:00 pmSSW 8.9 13.0----29.99-0.06------
2024-07-20 04:54 pm S 9.9 17.1----29.99-------
2024-07-20 04:48 pm S 7.0 9.9----30.00-------
2024-07-20 04:42 pmSSW 8.0 12.0----30.00-------
2024-07-20 04:36 pmSSW 7.0 8.9----30.00-------
2024-07-20 04:30 pm SW 4.1 6.0----30.00- 84.7-----
2024-07-20 04:24 pmSSW 5.1 11.1----30.00- 84.2-----
2024-07-20 04:18 pm SW 8.0 11.1----30.00- 84.4-----
2024-07-20 04:12 pm S 6.0 12.0----30.00- 83.8-----
2024-07-20 04:06 pm S 8.0 13.0----30.00- 81.7-----
2024-07-20 04:00 pm SE 9.9 12.0------ 80.8-----
2024-07-20 03:54 pm SE 7.0 8.9------ 80.2-----
2024-07-20 03:48 pm SE 8.0 12.0----30.01-------
2024-07-20 03:42 pmESE 9.9 14.0----30.01-------
2024-07-20 03:36 pmESE 9.9 13.0----30.01-------
2024-07-20 03:30 pmESE 9.9 13.0----30.01- 78.1-----
2024-07-20 03:24 pmESE 8.0 9.9----30.01- 77.9-----
2024-07-20 03:18 pm E 8.0 9.9----30.02- 77.0-----
2024-07-20 03:12 pm E 9.9 12.0----30.02- 77.2-----
2024-07-20 03:06 pm E 11.1 12.0----30.03- 77.5-----
2024-07-20 03:00 pmESE 11.1 12.0----30.03-0.05 77.4-----
2024-07-20 02:54 pmESE 11.1 12.0----30.03- 77.5-----
2024-07-20 02:48 pmESE 8.9 13.0----30.03-------
2024-07-20 02:42 pmESE 9.9 13.0----30.04-------
2024-07-20 02:36 pmESE 7.0 11.1----30.04-------
2024-07-20 02:30 pmESE 7.0 11.1----30.04- 78.6-----
2024-07-20 02:24 pmESE 9.9 13.0----30.04- 77.5-----
2024-07-20 02:18 pmESE 11.1 13.0----30.05- 77.4-----
2024-07-20 02:12 pmESE 8.9 12.0----30.05- 77.4-----
2024-07-20 02:06 pm SE 8.9 12.0----30.05- 77.2-----
2024-07-20 02:00 pmESE 8.0 9.9----30.05-0.03 76.5-----
2024-07-20 01:54 pm SE 8.0 9.9----30.06- 76.3-----
2024-07-20 01:48 pm SE 8.0 12.0----30.06- 76.5-----
2024-07-20 01:42 pmSSE 8.0 12.0----30.06- 76.6-----
2024-07-20 01:36 pm SE 9.9 14.0----30.06- 76.6-----
2024-07-20 01:30 pmSSE 8.9 13.0----30.06- 76.6-----
2024-07-20 01:24 pm SE 11.1 13.0----30.06- 76.5-----
2024-07-20 01:18 pmESE 9.9 13.0----30.06- 76.8-----
2024-07-20 01:12 pmESE 7.0 8.9----30.06- 76.6-----
2024-07-20 01:06 pmESE 7.0 11.1----30.07- 77.2-----
2024-07-20 01:00 pmESE 6.0 8.9----30.07-0.01 77.5-----
2024-07-20 12:54 pmESE 6.0 8.0----30.07- 77.2-----
2024-07-20 12:48 pm E 8.0 9.9----30.07-------
2024-07-20 12:42 pmESE 7.0 8.9----30.07-------
2024-07-20 12:36 pmESE 8.0 9.9----30.07-------
2024-07-20 12:30 pmESE 8.9 9.9----30.07- 77.7-----
2024-07-20 12:24 pmESE 7.0 9.9----30.08- 78.1-----
2024-07-20 12:18 pmESE 6.0 8.9----30.08- 78.1-----
2024-07-20 12:12 pmESE 7.0 8.9----30.08- 78.1-----
2024-07-20 12:06 pmESE 5.1 7.0----30.08- 77.9-----
2024-07-20 12:00 pmESE 6.0 8.0----30.08-0.01------
2024-07-20 11:54 amESE 6.0 8.0----30.08-------
2024-07-20 11:48 amESE 6.0 8.9----30.08-------
2024-07-20 11:42 amESE 8.0 8.9----30.08-------
2024-07-20 11:36 amESE 6.0 8.9----30.08-------
2024-07-20 11:30 amESE 4.1 7.0----30.08- 79.2-----
2024-07-20 11:24 am E 4.1 7.0----30.08- 79.2-----
2024-07-20 11:18 amESE 5.1 6.0----30.09- 79.0-----
2024-07-20 11:12 amESE 2.9 5.1----30.09- 80.8-----
2024-07-20 11:06 amSSW 2.9 5.1----30.09- 80.6-----
2024-07-20 11:00 am SW 2.9 5.1----30.09-0.01 80.4-----
2024-07-20 10:54 am SW 1.9 4.1----30.09- 80.4-----
2024-07-20 10:48 am SW 2.9 5.1----30.09-------
2024-07-20 10:42 am SW 2.9 5.1----30.08-------
2024-07-20 10:36 am SW 1.0 4.1----30.08-------
2024-07-20 10:30 amSSW 2.9 7.0----30.08- 78.8-----
2024-07-20 10:24 am SE 2.9 5.1----30.08- 77.9-----
2024-07-20 10:18 amESE 4.1 6.0----30.08- 77.4-----
2024-07-20 10:12 am SE 5.1 6.0----30.08- 77.0-----
2024-07-20 10:06 amESE 5.1 6.0----30.09- 77.4-----
2024-07-20 10:00 amESE 5.1 6.0----30.09+0.00------
2024-07-20 09:54 amESE 4.1 5.1----30.09-------
2024-07-20 09:48 am SE 5.1 7.0----30.09- 77.0-----
2024-07-20 09:42 am SE 5.1 7.0----30.09- 77.0-----
2024-07-20 09:36 am SE 6.0 7.0----30.09- 77.4-----
2024-07-20 09:30 am SE 5.1 7.0----30.09- 77.2-----
2024-07-20 09:24 amSSE 5.1 7.0----30.09- 77.0-----
2024-07-20 09:18 am SE 6.0 8.0----30.09- 77.0-----
2024-07-20 09:12 am SE 6.0 8.0----30.09- 76.8-----
2024-07-20 09:06 am SE 6.0 8.9----30.09- 76.8-----
2024-07-20 09:00 am SE 6.0 8.0----30.09+0.02 76.6-----
2024-07-20 08:54 am SE 5.1 8.0----30.10- 76.6-----
2024-07-20 08:48 am SE 7.0 8.9----30.10- 76.6-----
2024-07-20 08:42 am SE 6.0 8.9----30.10- 76.6-----
2024-07-20 08:36 amESE 5.1 7.0----30.10- 76.5-----
2024-07-20 08:30 amESE 5.1 7.0----30.10- 76.5-----
2024-07-20 08:24 amESE 5.1 7.0----30.10- 76.6-----
2024-07-20 08:18 am SE 5.1 6.0----30.10-------
2024-07-20 08:12 am SE 4.1 6.0----30.10-------
2024-07-20 08:06 amESE 5.1 7.0----30.10-------
2024-07-20 08:00 am SE 5.1 8.0----30.10+0.03 76.6-----
2024-07-20 07:54 amESE 6.0 8.0----30.09- 76.3-----
2024-07-20 07:48 amESE 6.0 8.0----30.09-------
2024-07-20 07:42 amESE 6.0 8.0----30.09-------
2024-07-20 07:36 amESE 6.0 7.0----30.09-------
2024-07-20 07:30 am E 6.0 7.0----30.09- 75.0-----
2024-07-20 07:24 am E 6.0 7.0----30.09- 75.0-----
2024-07-20 07:18 am E 6.0 7.0----30.09- 75.0-----
2024-07-20 07:12 am E 7.0 7.0----30.09- 75.0-----
2024-07-20 07:06 am E 6.0 6.0----30.09- 74.7-----
2024-07-20 07:00 am-------30.08+0.01 74.7-----
2024-07-20 06:54 am-------30.08- 74.5-----
2024-07-20 06:48 am E 5.1 6.0----30.08-------
2024-07-20 06:42 am E 6.0 6.0----30.08-------
2024-07-20 06:36 am E 5.1 6.0----30.08-------
2024-07-20 06:30 am-------30.08- 74.7-----
2024-07-20 06:24 am-------30.08- 75.0-----
2024-07-20 06:18 am E 2.9 4.1----30.08- 74.7-----
2024-07-20 06:12 am E 4.1 4.1----30.08- 74.7-----
2024-07-20 06:06 amENE 2.9 4.1----30.08- 74.8-----
2024-07-20 06:00 am E 1.9 1.9----30.08+0.00 75.4-----
2024-07-20 05:54 am E 1.9 1.9----30.08- 75.6-----